Waarnemingen

Advertentie
Mijn weer
Koblenz/Falkensteinkaserne, Duitsland (10516): temperatuur & dauwpunt: 18.02.2017 16:00:00 - 24.02.2017 16:00:00 (CET)Koblenz/Falkensteinkaserne, Duitsland (10516): windsnelheid & windstoten: 18.02.2017 16:00:00 - 24.02.2017 16:00:00 (CET)Koblenz/Falkensteinkaserne, Duitsland (10516): windrichting: 18.02.2017 16:00:00 - 24.02.2017 16:00:00 (CET)Koblenz/Falkensteinkaserne, Duitsland (10516): luchtdruk: 18.02.2017 16:00:00 - 24.02.2017 16:00:00 (CET)Koblenz/Falkensteinkaserne, Duitsland (10516): zicht: 18.02.2017 16:00:00 - 24.02.2017 16:00:00 (CET)
Datum & Tijd tt [°C] td [°C] ff [km/u] ff [kn] fx [km/u] fx [kn] dd ppp [hPa] vv [km]
24.02.2017 16:00:00 8,0 -3,0 11 6 - - WNW 1015,3 20
24.02.2017 15:00:00 6,7 -2,6 14 8 - - WNW 1015,1 20
24.02.2017 14:00:00 6,9 -2,7 14 8 - - WNW 1014,7 20
24.02.2017 13:00:00 6,5 -2,4 11 6 - - NW 1014,2 20
24.02.2017 12:00:00 6,6 -2,0 14 8 - - WNW 1014,0 20
24.02.2017 11:00:00 6,3 -1,0 18 10 - - NW 1013,5 20
24.02.2017 10:00:00 5,2 0,0 11 6 - - W 1012,8 15
24.02.2017 09:00:00 4,1 -0,3 7 4 - - WZW 1011,7 15
24.02.2017 08:00:00 3,6 -0,4 11 6 - - W 1010,7 15
24.02.2017 07:00:00 3,8 0,4 11 6 - - W 1009,8 15
24.02.2017 06:00:00 3,6 0,6 11 6 - - W 1008,6 -
24.02.2017 05:00:00 5,0 0,2 14 8 - - W 1007,4 -
24.02.2017 04:00:00 5,9 -0,7 18 10 - - WNW 1005,8 -
24.02.2017 03:00:00 6,2 0,1 18 10 - - W 1004,7 -
24.02.2017 02:00:00 6,1 0,9 18 10 - - W 1002,5 -
24.02.2017 01:00:00 6,1 0,9 22 12 - - WZW 1000,8 -
24.02.2017 00:00:00 6,4 1,7 18 10 47 25 W 999,7 -
23.02.2017 23:00:00 8,3 0,1 18 10 - - WZW 998,5 -
23.02.2017 22:00:00 8,3 0,3 18 10 - - WZW 998,3 -
23.02.2017 21:00:00 8,2 1,2 18 10 - - WZW 998,1 25
23.02.2017 20:00:00 7,6 3,1 22 12 54 29 W 997,5 20
23.02.2017 19:00:00 8,9 2,4 14 8 - - ZW 996,6 30
23.02.2017 18:00:00 9,4 3,6 11 6 - - WZW 996,1 20
23.02.2017 17:00:00 9,6 4,9 18 10 47 25 ZW 995,9 12
23.02.2017 16:00:00 9,4 4,4 18 10 - - ZW 996,4 20
23.02.2017 15:00:00 9,5 3,8 14 8 - - ZW 997,3 20
23.02.2017 14:00:00 9,5 3,2 14 8 - - ZW 999,4 20
23.02.2017 13:00:00 9,6 3,4 14 8 - - WZW 1000,8 15
23.02.2017 12:00:00 9,5 3,5 14 8 - - ZW 1001,7 20
23.02.2017 11:00:00 9,4 3,8 14 8 - - ZW 1002,6 15
23.02.2017 10:00:00 9,2 4,1 7 4 - - WZW 1003,9 15
23.02.2017 09:00:00 9,3 4,9 11 6 - - ZW 1004,7 15
23.02.2017 08:00:00 9,3 5,3 11 6 - - ZW 1005,1 12
23.02.2017 07:00:00 9,5 5,8 11 6 - - ZW 1005,5 12
23.02.2017 06:00:00 9,6 6,1 14 8 - - ZW 1006,5 -
23.02.2017 05:00:00 9,8 6,3 11 6 - - ZW 1006,8 -
23.02.2017 04:00:00 9,7 6,4 11 6 - - ZW 1007,2 -
23.02.2017 03:00:00 9,7 6,5 14 8 - - ZW 1007,6 -
23.02.2017 02:00:00 9,7 6,8 11 6 - - ZW 1008,0 -
23.02.2017 01:00:00 9,9 6,8 14 8 - - ZW 1008,1 -
23.02.2017 00:00:00 10,2 6,7 14 8 - - WZW 1008,3 -
22.02.2017 23:00:00 10,2 7,1 11 6 - - WZW 1008,6 -
22.02.2017 22:00:00 10,3 7,1 14 8 - - WZW 1008,6 -
22.02.2017 21:00:00 10,0 7,2 14 8 - - WZW 1008,7 9
22.02.2017 20:00:00 9,7 7,6 11 6 - - ZW 1008,8 9
22.02.2017 19:00:00 10,1 7,3 14 8 - - WZW 1009,0 10
22.02.2017 18:00:00 10,4 7,2 14 8 - - WZW 1008,6 10
22.02.2017 17:00:00 11,0 6,8 18 10 - - WZW 1008,2 20
22.02.2017 16:00:00 11,5 6,8 18 10 - - WZW 1008,6 25
22.02.2017 15:00:00 12,0 6,7 11 6 - - WZW 1009,1 25
22.02.2017 14:00:00 11,6 6,6 14 8 - - WZW 1009,9 30
22.02.2017 13:00:00 12,1 6,6 14 8 - - WZW 1010,1 30
22.02.2017 12:00:00 11,4 6,4 18 10 - - WZW 1010,8 30
22.02.2017 11:00:00 11,2 6,7 14 8 - - WZW 1010,7 30
22.02.2017 10:00:00 10,4 6,4 14 8 - - WZW 1010,7 30
22.02.2017 09:00:00 10,4 6,1 14 8 - - WZW 1010,3 30
22.02.2017 08:00:00 10,8 5,9 11 6 - - WZW 1010,5 30
22.02.2017 07:00:00 10,8 7,0 11 6 - - WZW 1010,9 15
22.02.2017 06:00:00 11,1 7,3 14 8 - - ZW 1011,0 -
22.02.2017 05:00:00 11,4 7,7 11 6 - - ZW 1011,7 -
22.02.2017 04:00:00 11,2 8,0 14 8 - - ZW 1011,8 -
22.02.2017 03:00:00 11,0 8,1 11 6 - - WZW 1012,4 -
22.02.2017 02:00:00 11,0 8,0 11 6 - - WZW 1013,2 -
22.02.2017 01:00:00 10,9 7,9 11 6 - - ZW 1013,9 -
22.02.2017 00:00:00 10,9 7,7 11 6 - - ZW 1014,6 -
21.02.2017 23:00:00 10,7 7,6 11 6 - - ZW 1014,8 -
21.02.2017 22:00:00 10,4 7,8 11 6 - - ZW 1015,5 -
21.02.2017 21:00:00 9,4 7,8 4 2 - - Z 1016,1 10
21.02.2017 20:00:00 9,2 7,7 4 2 - - N 1016,5 10
21.02.2017 19:00:00 9,5 7,6 4 2 - - O 1016,9 10
21.02.2017 18:00:00 9,7 7,2 4 2 - - ZO 1016,8 15
21.02.2017 17:00:00 9,9 7,2 14 8 - - NW 1016,6 15
21.02.2017 16:00:00 10,9 6,9 11 6 - - NW 1016,7 15
21.02.2017 15:00:00 10,6 7,9 4 2 - - N 1016,6 15
21.02.2017 14:00:00 10,6 7,6 11 6 - - NW 1016,7 10
21.02.2017 13:00:00 10,7 6,7 14 8 - - NW 1016,9 8
21.02.2017 12:00:00 11,6 6,2 14 8 - - WNW 1016,8 13
21.02.2017 11:00:00 11,4 7,6 7 4 - - W 1016,6 15
21.02.2017 10:00:00 9,8 8,1 7 4 - - N 1016,4 9
21.02.2017 09:00:00 9,3 7,9 7 4 - - NW 1016,3 7
21.02.2017 08:00:00 9,6 7,5 14 8 - - WNW 1015,8 7
21.02.2017 07:00:00 - - - - - - - - 8
21.02.2017 06:00:00 - - - - - - - - -
21.02.2017 05:00:00 - - - - - - - - -
21.02.2017 04:00:00 - - - - - - - - -
21.02.2017 03:00:00 - - - - - - - - -
21.02.2017 02:00:00 - - - - - - - - -
21.02.2017 01:00:00 9,8 7,8 11 6 - - WZW 1015,8 -
21.02.2017 00:00:00 9,8 7,4 14 8 - - WZW 1016,1 -
20.02.2017 23:00:00 10,0 7,1 11 6 - - WZW 1016,4 -
20.02.2017 22:00:00 - - - - - - - - -
20.02.2017 21:00:00 9,6 6,8 11 6 - - ZW 1017,1 8
20.02.2017 20:00:00 9,4 6,6 7 4 - - WZW 1017,5 8
20.02.2017 19:00:00 9,3 6,5 7 4 - - WZW 1017,4 8
20.02.2017 18:00:00 9,1 6,4 7 4 - - WZW 1017,3 8
20.02.2017 17:00:00 8,6 6,7 7 4 - - ZZW 1017,3 7
20.02.2017 16:00:00 8,7 6,3 7 4 - - ZZW 1018,0 8
20.02.2017 15:00:00 8,5 6,4 7 4 - - N 1018,5 7
20.02.2017 14:00:00 9,1 5,6 7 4 - - WZW 1019,0 15
20.02.2017 13:00:00 9,2 5,3 11 6 - - ZW 1019,6 15
20.02.2017 12:00:00 9,3 5,2 11 6 - - WZW 1020,4 15
20.02.2017 11:00:00 8,8 5,1 11 6 - - ZW 1020,6 15
20.02.2017 10:00:00 8,2 4,7 11 6 - - ZW 1021,3 15
20.02.2017 09:00:00 7,7 4,3 7 4 - - ZW 1021,4 15
20.02.2017 08:00:00 7,2 4,2 11 6 - - ZW 1021,3 15
20.02.2017 07:00:00 7,1 3,9 11 6 - - ZZW 1021,2 12
20.02.2017 06:00:00 6,9 4,0 4 2 - - N 1021,9 -
20.02.2017 05:00:00 6,6 4,2 4 2 - - ZZO 1021,6 -
20.02.2017 04:00:00 6,5 4,2 4 2 - - N 1022,0 -
20.02.2017 03:00:00 6,6 4,4 4 2 - - Z 1022,6 -
20.02.2017 02:00:00 6,3 4,5 4 2 - - N 1022,9 -
20.02.2017 01:00:00 6,6 4,6 4 2 - - N 1023,1 -
20.02.2017 00:00:00 6,3 4,8 4 2 - - N 1022,9 -
19.02.2017 23:00:00 6,1 5,1 4 2 - - N 1022,8 -
19.02.2017 22:00:00 6,3 5,3 4 2 - - W 1022,9 -
19.02.2017 21:00:00 6,1 5,0 4 2 - - N 1022,5 -
19.02.2017 20:00:00 6,4 5,0 4 2 - - N 1022,6 -
19.02.2017 19:00:00 7,1 4,0 7 4 - - N 1022,1 -
19.02.2017 18:00:00 7,9 2,9 11 6 - - ZW 1021,4 -
19.02.2017 17:00:00 8,4 2,0 11 6 - - ZZW 1021,5 -
19.02.2017 16:00:00 7,9 2,1 7 4 - - Z 1021,9 -
19.02.2017 15:00:00 7,6 1,4 7 4 - - ZW 1022,4 -
19.02.2017 14:00:00 8,6 1,1 11 6 - - WZW 1022,7 -
19.02.2017 13:00:00 7,0 0,5 11 6 - - ZW 1023,4 -
19.02.2017 12:00:00 5,1 -0,2 4 2 - - N 1024,6 -
19.02.2017 11:00:00 2,1 1,3 4 2 - - NNO 1025,4 -
19.02.2017 10:00:00 0,0 -0,6 7 4 - - ZO 1025,3 -
19.02.2017 09:00:00 -0,6 -1,2 7 4 - - N 1025,8 -
19.02.2017 08:00:00 -1,2 -1,8 4 2 - - N 1026,0 -
19.02.2017 07:00:00 -0,9 -1,5 7 4 - - N 1025,3 -
19.02.2017 06:00:00 -0,8 -1,5 7 4 - - N 1025,5 -
19.02.2017 05:00:00 -1,0 -1,8 4 2 - - N 1025,9 -
19.02.2017 04:00:00 -0,5 -1,4 7 4 - - N 1026,2 -
19.02.2017 03:00:00 -0,3 -1,3 4 2 - - N 1026,7 -
19.02.2017 02:00:00 0,4 -0,6 4 2 - - ZW 1027,0 -
19.02.2017 01:00:00 0,7 -0,5 4 2 - - N 1027,1 -
19.02.2017 00:00:00 1,5 0,1 4 2 - - N 1026,9 -
18.02.2017 23:00:00 3,2 0,7 4 2 - - ZZW 1027,2 -
18.02.2017 22:00:00 4,4 1,1 4 2 - - ZO 1027,2 -
18.02.2017 21:00:00 5,8 0,8 4 2 - - N 1027,2 -
18.02.2017 20:00:00 6,5 0,3 4 2 - - N 1027,2 -
18.02.2017 19:00:00 6,5 -0,3 4 2 - - N 1027,2 -
18.02.2017 18:00:00 7,7 -0,6 7 4 - - NW 1027,4 -
18.02.2017 17:00:00 7,9 0,1 4 2 - - NNO 1027,3 -
18.02.2017 16:00:00 8,1 0,5 4 2 - - ONO 1027,4 -

tt = temperatuur
td = dauwpunt
ff = windsnelheid
fx = windstoten
dd = windrichting
ppp = luchtdruk
vv = zicht

Weerstations in de omgeving